This demonstration page uses our WeatherBlox Daily Observations layout. Learn more.

Left ArrowRight Arrow

39.08367, -84.50855

Hourly Observations for July 30, 2020

Temp ( °F °C ) Dew Point ( °F °C ) Humidity (%) Winds ( mph kmh ) Pressure ( in mb ) Visibility ( mi km ) Precip ( " mm )
12:53 am 00:53 Clear 73 22.8 68 20 84 84 N N/A 29.93 1014 10 16 N/A
1:53 am 01:53 Clear 72 22.2 68 20 87 87 N N/A 29.92 1013 10 16 N/A
2:53 am 02:53 Clear 72 22.2 69 20.6 91 91 N N/A 29.90 1013 8 13 N/A
3:53 am 03:53 Clear with Mist and Fog 71 21.7 69 20.6 94 94 N N/A 29.90 1012 6 10 N/A
4:53 am 04:53 Clear 72 22.2 69 20.6 91 91 N N/A 29.89 1012 7 11 N/A
5:53 am 05:53 Clear with Mist and Fog 71 21.7 69 20.6 94 94 N N/A 29.90 1012 6 10 N/A
6:53 am 06:53 Partly Cloudy with Mist and Fog 71 21.7 69 20.6 94 94 N N/A 29.90 1012 6 10 N/A
7:53 am 07:53 Partly Cloudy with Mist and Fog 73 22.8 70 21.1 90 90 N N/A 29.89 1012 6 10 N/A
8:53 am 08:53 Partly Cloudy 74 23.3 71 21.7 91 91 N N/A 29.89 1012 7 11 N/A
9:53 am 09:53 Cloudy with Mist and Fog 76 24.4 72 22.2 88 88 N N/A 29.89 1012 6 10 0.00 0.00
10:53 am 10:53 Cloudy with Light Rain 75 23.9 72 22.2 90 90 N N/A 29.91 1013 5 8 0.04 1.02
11:02 am 11:02 Cloudy with Nearby Thunderstorms 75 23.9 72 22.2 90 90 W 10 17 29.92 1013 3 5 0.02 0.51
11:07 am 11:07 Cloudy with Nearby Thunderstorms 74 23.3 71 21.7 91 91 WSW 13 20 29.93 1014 1 2 0.12 3.05
11:11 am 11:11 Cloudy with Heavy Rain 73 22.8 69 20.6 87 87 WSW 9 15 29.93 1014 1 2 0.17 4.32
11:45 am 11:45 Cloudy with Rain 73 22.8 70 21.1 90 90 N N/A 29.92 1013 3 5 0.46 11.68
11:53 am 11:53 Cloudy with Rain 72 22.2 71 21.7 97 97 N N/A 29.93 1014 3 5 0.48 12.19
12:11 pm 12:11 Cloudy with Light Rain 73 22.8 71 21.7 94 94 ENE 5 7 29.92 1013 3 5 0.03 0.76
12:53 pm 12:53 Cloudy with Light Rain 72 22.2 69 20.6 91 91 ENE 5 7 29.91 1013 5 8 0.12 3.05
1:53 pm 13:53 Cloudy with Light Rain 72 22.2 68 20 87 87 ENE 5 7 29.89 1012 8 13 0.07 1.78
2:53 pm 14:53 Cloudy with Mist and Fog 73 22.8 69 20.6 87 87 E 8 13 29.86 1011 4 6 0.06 1.52
3:53 pm 15:53 Cloudy with Rain 72 22.2 67 19.4 84 84 ENE 6 9 29.85 1011 5 8 0.07 1.78
4:53 pm 16:53 Cloudy with Heavy Rain 69 20.6 67 19.4 93 93 E 3 6 29.85 1011 4 6 0.35 8.89
5:00 pm 17:00 Cloudy with Heavy Rain 69 20.6 66 18.9 90 90 E 3 6 29.85 1011 2 3 0.05 1.27
5:09 pm 17:09 Cloudy with Heavy Rain 69 20.6 66 18.9 90 90 E 5 7 29.85 1011 2 3 0.09 2.29
5:53 pm 17:53 Cloudy with Heavy Rain 69 20.6 67 19.4 93 93 N N/A 29.83 1010 3 4 0.27 6.86
6:06 pm 18:06 Cloudy with Heavy Rain 69 20.6 67 19.4 93 93 N N/A 29.82 1010 3 4 0.07 1.78
6:13 pm 18:13 Cloudy with Rain 69 20.6 67 19.4 93 93 N N/A 29.82 1010 3 5 0.09 2.29
7:53 pm 19:53 Cloudy with Light Rain 70 21.1 68 20 93 93 NE 3 6 29.82 1010 10 16 0.06 1.52
8:53 pm 20:53 Cloudy with Mist and Fog 70 21.1 68 20 93 93 NNE 7 11 29.81 1010 5 8 0.00 0.00
9:53 pm 21:53 Cloudy with Mist and Fog 70 21.1 68 20 93 93 NNE 6 9 29.82 1010 6 10 N/A
10:53 pm 22:53 Cloudy 70 21.1 68 20 93 93 NE 7 11 29.80 1009 9 14 N/A
11:53 pm 23:53 Cloudy 70 21.1 68 20 93 93 N 6 9 29.81 1009 9 14 0.00 0.00

Powered by AerisWeather